• In Czech Republic
  • List of Countries
  • For 7 days
  • Water Temperature
  • Satellite Maps
  • Weather Map
  • Weather Widgets
  • user-avatar
    Login

    Hourly Weather Pshenychne

    Today, 18 July, Wednesday

    Time Temperature Precipitation Wind Pressure Humidity
    00:00 +22°C° 0 mm 1 mps 748 mmHg 73%
    01:00 +22°C° 0 mm 1 mps 748 mmHg 74%
    02:00 +20°C° 0 mm 2 mps 748 mmHg 75%
    03:00 +20°C° 0 mm 2 mps 748 mmHg 76%
    04:00 +20°C° 0 mm 2 mps 748 mmHg 78%
    05:00 +20°C° 0 mm 2 mps 748 mmHg 79%
    06:00 +21°C° 0 mm 2 mps 748 mmHg 73%
    07:00 +24°C° 0 mm 3 mps 748 mmHg 67%
    08:00 +26°C° 0 mm 3 mps 748 mmHg 62%
    09:00 +27°C° 0 mm 3 mps 748 mmHg 56%
    10:00 +28°C° 0 mm 3 mps 748 mmHg 51%
    11:00 +30°C° 0 mm 3 mps 747 mmHg 45%
    12:00 +30°C° 0 mm 3 mps 747 mmHg 44%
    13:00 +30°C° 0 mm 3 mps 747 mmHg 43%
    14:00 +30°C° 0 mm 4 mps 747 mmHg 43%
    15:00 +30°C° 0 mm 3 mps 747 mmHg 44%
    16:00 +30°C° 0 mm 3 mps 747 mmHg 44%
    17:00 +30°C° 0 mm 3 mps 747 mmHg 45%
    18:00 +29°C° 0 mm 3 mps 747 mmHg 49%
    19:00 +27°C° 0 mm 2 mps 747 mmHg 53%
    20:00 +26°C° 0 mm 2 mps 747 mmHg 56%
    21:00 +25°C° 0.5 mm 2 mps 747 mmHg 63%
    22:00 +24°C° 0.5 mm 2 mps 747 mmHg 70%
    23:00 +23°C° 0.5 mm 2 mps 747 mmHg 76%

    Tomorrow, 19 July, Thursday

    Time Temperature Precipitation Wind Pressure Humidity
    00:00 +21°C° 0.2 mm 2 mps 747 mmHg 78%
    01:00 +21°C° 0.2 mm 2 mps 748 mmHg 80%
    02:00 +20°C° 0.2 mm 2 mps 748 mmHg 82%
    03:00 +20°C° 0.1 mm 2 mps 748 mmHg 83%
    04:00 +20°C° 0.1 mm 2 mps 748 mmHg 84%
    05:00 +19°C° 0.1 mm 2 mps 748 mmHg 85%
    06:00 +21°C° 0 mm 3 mps 748 mmHg 79%
    07:00 +24°C° 0 mm 3 mps 748 mmHg 73%
    08:00 +25°C° 0 mm 3 mps 748 mmHg 66%
    09:00 +27°C° 0 mm 3 mps 748 mmHg 60%
    10:00 +28°C° 0 mm 2 mps 748 mmHg 54%
    11:00 +29°C° 0 mm 2 mps 748 mmHg 48%
    12:00 +30°C° 0 mm 2 mps 748 mmHg 46%
    13:00 +30°C° 0 mm 2 mps 748 mmHg 44%
    14:00 +31°C° 0 mm 3 mps 748 mmHg 43%
    15:00 +31°C° 0.1 mm 3 mps 748 mmHg 44%
    16:00 +31°C° 0.1 mm 3 mps 748 mmHg 45%
    17:00 +31°C° 0.1 mm 3 mps 748 mmHg 46%
    18:00 +29°C° 0.2 mm 3 mps 749 mmHg 52%
    19:00 +28°C° 0.2 mm 3 mps 749 mmHg 57%
    20:00 +27°C° 0.2 mm 3 mps 749 mmHg 63%
    21:00 +26°C° 0 mm 3 mps 749 mmHg 68%
    22:00 +25°C° 0 mm 3 mps 749 mmHg 73%
    23:00 +24°C° 0 mm 3 mps 749 mmHg 78%

    Day after tomorrow, 20 July, Friday

    Time Temperature Precipitation Wind Pressure Humidity
    00:00 +24°C° 0.2 mm 3 mps 749 mmHg 81%
    01:00 +23°C° 0.2 mm 4 mps 749 mmHg 85%
    02:00 +22°C° 0.2 mm 4 mps 749 mmHg 88%
    03:00 +22°C° 0 mm 4 mps 750 mmHg 89%
    04:00 +22°C° 0 mm 5 mps 750 mmHg 90%
    05:00 +21°C° 0 mm 5 mps 750 mmHg 92%
    06:00 +23°C° 0 mm 5 mps 750 mmHg 85%
    07:00 +25°C° 0 mm 5 mps 750 mmHg 78%
    08:00 +26°C° 0 mm 5 mps 750 mmHg 72%
    09:00 +28°C° 0 mm 5 mps 751 mmHg 64%
    10:00 +29°C° 0 mm 6 mps 751 mmHg 57%
    11:00 +32°C° 0 mm 6 mps 751 mmHg 50%
    12:00 +32°C° 0 mm 5 mps 751 mmHg 47%
    13:00 +33°C° 0 mm 5 mps 751 mmHg 44%
    14:00 +34°C° 0 mm 5 mps 750 mmHg 41%
    15:00 +33°C° 0 mm 5 mps 750 mmHg 42%
    16:00 +33°C° 0 mm 5 mps 750 mmHg 43%
    17:00 +33°C° 0 mm 5 mps 750 mmHg 43%
    18:00 +30°C° 0 mm 4 mps 751 mmHg 48%
    19:00 +29°C° 0 mm 4 mps 751 mmHg 54%
    20:00 +27°C° 0 mm 3 mps 751 mmHg 59%
    21:00 +26°C° 0 mm 3 mps 751 mmHg 62%
    22:00 +26°C° 0 mm 3 mps 752 mmHg 64%
    23:00 +25°C° 0 mm 3 mps 752 mmHg 67%

    21 July, Saturday

    Time Temperature Precipitation Wind Pressure Humidity
    00:00 +24°C° 0 mm 3 mps 752 mmHg 70%
    01:00 +24°C° 0 mm 3 mps 752 mmHg 73%
    02:00 +22°C° 0 mm 3 mps 752 mmHg 75%
    03:00 +22°C° 0 mm 3 mps 752 mmHg 77%
    04:00 +22°C° 0 mm 3 mps 752 mmHg 79%
    05:00 +22°C° 0 mm 4 mps 752 mmHg 81%
    06:00 +23°C° 0.1 mm 4 mps 752 mmHg 77%
    07:00 +23°C° 0.1 mm 4 mps 753 mmHg 73%
    08:00 +25°C° 0.1 mm 5 mps 753 mmHg 69%
    09:00 +27°C° 0 mm 5 mps 753 mmHg 62%
    10:00 +29°C° 0 mm 5 mps 753 mmHg 56%
    11:00 +30°C° 0 mm 5 mps 753 mmHg 50%
    12:00 +32°C° 0 mm 5 mps 753 mmHg 47%
    13:00 +33°C° 0 mm 5 mps 752 mmHg 44%
    14:00 +34°C° 0 mm 5 mps 752 mmHg 41%
    15:00 +33°C° 0 mm 5 mps 752 mmHg 42%
    16:00 +33°C° 0 mm 5 mps 752 mmHg 43%
    17:00 +33°C° 0 mm 5 mps 752 mmHg 44%
    18:00 +30°C° 0 mm 4 mps 752 mmHg 49%
    19:00 +29°C° 0 mm 4 mps 752 mmHg 55%
    20:00 +27°C° 0 mm 3 mps 752 mmHg 60%
    21:00 +27°C° 0 mm 3 mps 753 mmHg 64%
    22:00 +26°C° 0 mm 3 mps 753 mmHg 67%
    23:00 +25°C° 0 mm 3 mps 753 mmHg 70%

    22 July, Sunday

    Time Temperature Precipitation Wind Pressure Humidity
    00:00 +24°C° 0 mm 3 mps 753 mmHg 73%
    01:00 +24°C° 0 mm 3 mps 753 mmHg 76%
    02:00 +22°C° 0 mm 3 mps 753 mmHg 79%
    03:00 +22°C° 0 mm 3 mps 753 mmHg 81%
    04:00 +21°C° 0 mm 3 mps 753 mmHg 83%
    05:00 +21°C° 0 mm 3 mps 753 mmHg 86%
    06:00 +24°C° 0 mm 3 mps 753 mmHg 78%
    07:00 +25°C° 0 mm 3 mps 753 mmHg 70%
    08:00 +27°C° 0 mm 3 mps 753 mmHg 63%
    09:00 +28°C° 0 mm 3 mps 753 mmHg 57%
    10:00 +30°C° 0 mm 3 mps 753 mmHg 50%
    11:00 +31°C° 0 mm 3 mps 753 mmHg 44%
    12:00 +33°C° 0 mm 3 mps 752 mmHg 41%
    13:00 +34°C° 0 mm 3 mps 752 mmHg 37%
    14:00 +34°C° 0 mm 3 mps 752 mmHg 34%
    15:00 +34°C° 0 mm 3 mps 752 mmHg 34%
    16:00 +34°C° 0 mm 3 mps 751 mmHg 35%
    17:00 +34°C° 0 mm 3 mps 751 mmHg 35%
    18:00 +31°C° 0 mm 3 mps 751 mmHg 40%
    19:00 +30°C° 0 mm 2 mps 751 mmHg 45%
    20:00 +28°C° 0 mm 2 mps 751 mmHg 49%
    21:00 +27°C° 0 mm 2 mps 751 mmHg 51%
    22:00 +27°C° 0 mm 2 mps 751 mmHg 53%
    23:00 +26°C° 0 mm 2 mps 751 mmHg 55%

    23 July, Monday

    Time Temperature Precipitation Wind Pressure Humidity
    00:00 +25°C° 0 mm 2 mps 751 mmHg 57%
    01:00 +25°C° 0 mm 2 mps 751 mmHg 58%
    02:00 +24°C° 0 mm 2 mps 751 mmHg 59%
    03:00 +24°C° 0 mm 2 mps 751 mmHg 61%
    04:00 +24°C° 0 mm 1 mps 751 mmHg 63%
    05:00 +23°C° 0 mm 1 mps 751 mmHg 65%
    06:00 +25°C° 0 mm 2 mps 751 mmHg 60%
    07:00 +27°C° 0 mm 2 mps 751 mmHg 55%
    08:00 +29°C° 0 mm 3 mps 751 mmHg 50%
    09:00 +30°C° 0 mm 3 mps 751 mmHg 46%
    10:00 +31°C° 0 mm 3 mps 751 mmHg 43%
    11:00 +32°C° 0 mm 2 mps 751 mmHg 39%
    12:00 +32°C° 0 mm 2 mps 751 mmHg 39%
    13:00 +32°C° 0 mm 2 mps 751 mmHg 39%
    14:00 +32°C° 0 mm 2 mps 751 mmHg 40%
    15:00 +32°C° 0 mm 2 mps 751 mmHg 40%
    16:00 +32°C° 0 mm 2 mps 751 mmHg 40%
    17:00 +33°C° 0 mm 3 mps 751 mmHg 41%
    18:00 +31°C° 0 mm 2 mps 751 mmHg 46%
    19:00 +29°C° 0 mm 2 mps 751 mmHg 51%
    20:00 +28°C° 0 mm 2 mps 751 mmHg 57%
    21:00 +27°C° 0.2 mm 2 mps 752 mmHg 60%
    22:00 +26°C° 0.2 mm 2 mps 752 mmHg 63%
    23:00 +25°C° 0.2 mm 1 mps 752 mmHg 66%
    Show more